Bloomington, IN

3:17 PM EST on December 05, 2019 (GMT -0500)
Monroe County

Weather History for KBMG - September, 2019

Change the Weather History Date:

Sunday, September 1, 2019

  Actual Average Record
Temperature  
Mean Temperature 74 °F 71 °F  
Max Temperature 82 °F 83 °F 97 °F (2011)
Min Temperature 66 °F 59 °F 51 °F (1996)
Degree Days  
Heating Degree Days 0 0  
Month to date heating degree days 0 0  
Since 1 July heating degree days 0 7  
Cooling Degree Days 10 6  
Month to date cooling degree days 10 6  
Year to date cooling degree days 982 823  
Growing Degree Days 24 (Base 50)    
Moisture  
Dew Point 66 °F    
Average Humidity 83    
Maximum Humidity 94    
Minimum Humidity 58    
Precipitation  
Precipitation 0.87 in 0.11 in 1.72 in (2003)
Month to date precipitation 0.87 0.11  
Year to date precipitation 37.09 33.30  
Sea Level Pressure  
Sea Level Pressure 30.08 in    
Wind  
Wind Speed 4 mph ()    
Max Wind Speed 16 mph    
Max Gust Speed 27 mph    
Visibility 7.5 miles    
Events Fog , Rain , Thunderstorm    
T = Trace of Precipitation, MM = Missing Value Source: Averaged Metar Reports

Daily Weather History Graph

Daily Weather History Graph

Search for Another Location

Airport or City:

Astronomy

Sep. 01, 2019 Rise Set
Actual Time 7:14 AM EDT 8:17 PM EDT
Civil Twilight 6:47 AM EDT 8:44 PM EDT
Nautical Twilight 6:14 AM EDT 9:17 PM EDT
Astronomical Twilight 5:40 AM EDT 9:51 PM EDT
Moon 9:43 AM EDT (9/1) 10:05 PM EDT (9/1)
Length of Visible Light 13h 57m
Length of Day
13h 02m
Waxing Crescent, 8% of the Moon is Illuminated
Sep 1
Waxing Crescent
Sep 5
First Quarter
Sep 14
Full
Sep 21
Last Quarter
Sep 28
New

Hourly Weather History & Observations

Time (EDT) Temp. Heat Index Dew Point Humidity Pressure Visibility Wind Dir Wind Speed Gust Speed Precip Events Conditions
12:53 AM 66.9 °F - 62.1 °F 84% 30.14 in 10.0 mi ESE 4.6 mph - N/A   Clear
1:53 AM 66.0 °F - 62.1 °F 87% 30.13 in 10.0 mi ESE 3.5 mph - N/A   Clear
2:53 AM 66.0 °F - 62.1 °F 87% 30.12 in 10.0 mi Calm Calm - N/A   Clear
3:53 AM 66.0 °F - 61.0 °F 84% 30.11 in 10.0 mi ESE 4.6 mph - N/A   Partly Cloudy
4:53 AM 66.0 °F - 62.1 °F 87% 30.10 in 10.0 mi SE 4.6 mph - N/A   Scattered Clouds
5:53 AM 66.0 °F - 62.1 °F 87% 30.09 in 10.0 mi ESE 3.5 mph - N/A   Clear
6:53 AM 66.0 °F - 62.1 °F 87% 30.09 in 10.0 mi SE 3.5 mph - N/A   Partly Cloudy
7:53 AM 66.0 °F - 62.1 °F 87% 30.09 in 10.0 mi SE 3.5 mph - N/A   Clear
8:53 AM 66.9 °F - 64.0 °F 90% 30.11 in 10.0 mi SSE 3.5 mph - N/A   Partly Cloudy
9:53 AM 69.1 °F - 64.9 °F 87% 30.11 in 10.0 mi SSE 5.8 mph - N/A   Scattered Clouds
10:53 AM 73.0 °F - 66.0 °F 79% 30.12 in 10.0 mi SSW 4.6 mph - N/A   Scattered Clouds
11:53 AM 73.0 °F - 66.9 °F 81% 30.14 in 10.0 mi NNW 9.2 mph 20.7 mph N/A   Mostly Cloudy
12:24 PM 73.0 °F - 66.0 °F 79% 30.14 in 10.0 mi Calm Calm - N/A   Scattered Clouds
12:53 PM 73.9 °F - 66.0 °F 76% 30.12 in 10.0 mi West 3.5 mph - N/A   Clear
1:53 PM 81.0 °F 83.0 °F 66.0 °F 60% 30.09 in 10.0 mi Calm Calm - N/A   Clear
2:53 PM 82.9 °F 85.4 °F 66.9 °F 58% 30.07 in 10.0 mi SW 8.1 mph - N/A   Clear
3:53 PM 81.0 °F 83.3 °F 66.9 °F 62% 30.06 in 10.0 mi SW 5.8 mph - N/A   Clear
4:53 PM 82.9 °F 85.8 °F 68.0 °F 60% 30.04 in 10.0 mi WSW 6.9 mph - N/A   Clear
5:53 PM 82.9 °F 85.8 °F 68.0 °F 60% 30.03 in 10.0 mi West 5.8 mph - N/A   Clear
6:53 PM 81.0 °F 83.8 °F 68.0 °F 65% 30.02 in 10.0 mi Calm Calm - N/A   Partly Cloudy
7:43 PM 77.0 °F - 69.1 °F 76% 30.03 in 10.0 mi East 4.6 mph - N/A Thunderstorm Mostly Cloudy
7:50 PM 77.0 °F - 69.8 °F 78% 30.03 in 10.0 mi WSW 6.9 mph - 0.00 in Rain , Thunderstorm Light Thunderstorms and Rain
7:53 PM 75.0 °F - 70.0 °F 84% 30.02 in 4.0 mi West 5.8 mph - 0.03 in Rain , Thunderstorm Light Thunderstorms and Rain
7:57 PM 75.0 °F - 70.0 °F 84% 30.05 in 1.8 mi NW 5.8 mph - 0.07 in Rain , Thunderstorm Heavy Thunderstorms and Rain
8:06 PM 72.0 °F - 69.1 °F 91% 30.06 in 0.5 mi West 15.0 mph 26.5 mph 0.34 in Fog , Rain , Thunderstorm Heavy Thunderstorms and Rain
8:14 PM 71.1 °F - 66.9 °F 87% 30.06 in 0.5 mi Variable 6.9 mph 25.3 mph 0.57 in Fog , Rain , Thunderstorm Heavy Thunderstorms and Rain
8:28 PM 71.1 °F - 66.9 °F 87% 30.05 in 10.0 mi Variable 5.8 mph - 0.57 in Rain , Thunderstorm Light Thunderstorms and Rain
8:42 PM 70.0 °F - 68.0 °F 93% 30.06 in 1.0 mi Variable 4.6 mph - 0.84 in Rain , Thunderstorm Heavy Thunderstorms and Rain
8:47 PM 69.8 °F - 68.0 °F 94% 30.06 in 2.5 mi ESE 4.6 mph - 0.84 in Rain , Thunderstorm Light Rain
8:53 PM 71.1 °F - 68.0 °F 90% 30.04 in 10.0 mi ENE 5.8 mph - 0.84 in Rain , Thunderstorm Light Thunderstorms and Rain
9:10 PM 71.1 °F - 69.1 °F 93% 30.06 in 9.0 mi SSE 3.5 mph - 0.00 in Thunderstorm Overcast
9:28 PM 71.1 °F - 69.1 °F 93% 30.06 in 7.0 mi Calm Calm - 0.00 in   Overcast
9:53 PM 70.0 °F - 66.9 °F 90% 30.04 in 4.0 mi North 4.6 mph - 0.00 in   Mostly Cloudy
10:53 PM 69.1 °F - 66.9 °F 93% 30.06 in 6.0 mi Calm Calm - N/A   Partly Cloudy
11:32 PM 68.0 °F - 66.0 °F 93% 30.08 in 0.8 mi Calm Calm - N/A   Partly Cloudy
11:40 PM 68.0 °F - 66.0 °F 93% 30.08 in 1.0 mi Calm Calm - N/A   Scattered Clouds
11:53 PM 68.0 °F - 66.0 °F 93% 30.06 in 1.0 mi Calm Calm - N/A   Partly Cloudy